Regional Weather Roundup
Issued by NWS

Home | Current Version | Previous Version | Graphics & Text | Print | Product List | Glossary On
Versions: 1 2 3 4 5 6 7 8 9 10 11 12 13 14 15 16 17 18 19 20 21 22 23 24 25 26 27 28 29 30 31 32 33 34 35 36 37 38 39 40 41 42 43 44 45 46 47 48 49 50
000
ASUS43 KLSX 251759
RWRMO

WEATHER SUMMARY FOR MISSOURI
NATIONAL WEATHER SERVICE SPRINGFIELD MO
100 PM CDT SAT OCT 25 2014

NOTE: "FAIR" INDICATES FEW OR NO CLOUDS BELOW 12,000 FEET WITH NO
       SIGNIFICANT WEATHER AND/OR OBSTRUCTIONS TO VISIBILITY.
       CURRENT SKY AND/OR WEATHER CONDITIONS ARE NOT AVAILABLE FOR
       CHILLICOTHE AND FARMINGTON.

MOZ001>031-035>038-043-044-053-054-251900-
...NORTHERN AND WESTERN MISSOURI...

CITY           SKY/WX    TMP DP  RH WIND       PRES   REMARKS
KANSAS CTY INT MOSUNNY   75  57  53 E6        30.07F
6HR MIN TEMP:  51; 6HR MAX TEMP:  75;

KANSAS C DTWN  SUNNY     76  57  51 NE9       30.06F
6HR MIN TEMP:  54; 6HR MAX TEMP:  76;

LEE`S SUMMIT   SUNNY     75  60  59 NE5       30.07F
6HR MIN TEMP:  53; 6HR MAX TEMP:  75;

ST JOSEPH      SUNNY     74  52  46 E5        30.07F
6HR MIN TEMP:  50; 6HR MAX TEMP:  75;

KIRKSVILLE     SUNNY     75  49  39 N5        30.08F
6HR MIN TEMP:  47; 6HR MAX TEMP:  75;


$$
MOZ066>068-077>081-088>096-101>105-251900-
...SOUTHWEST MISSOURI...

CITY           SKY/WX    TMP DP  RH WIND       PRES   REMARKS
SPRINGFIELD    SUNNY     79  64  60 NW8       30.07F
6HR MIN TEMP:  63; 6HR MAX TEMP:  79;

JOPLIN         SUNNY     77  64  64 SW5       30.07F
6HR MIN TEMP:  61; 6HR MAX TEMP:  78;


$$
MOZ032>034-039>042-045>050-055>058-069>072-251900-
...CENTRAL MISSOURI...

CITY           SKY/WX    TMP DP  RH WIND       PRES   REMARKS
COLUMBIA       SUNNY     76  64  66 VRB7      30.06F
6HR MIN TEMP:  53; 6HR MAX TEMP:  76;

JEFFERSON CITY SUNNY     75  63  66 VRB3      30.05F HAZE
6HR MIN TEMP:  52; 6HR MAX TEMP:  75;

ROLLA          SUNNY     75  63  66 W8        30.05F HAZE
6HR MIN TEMP:  54; 6HR MAX TEMP:  75;

SEDALIA        SUNNY     72  63  73 N5        30.08F
6HR MIN TEMP:  59; 6HR MAX TEMP:  72;

OSAGE BEACH    SUNNY     75  63  64 CALM      30.06F

$$
MOZ051-052-059>065-251900-
...EAST CENTRAL MISSOURI...

CITY           SKY/WX    TMP DP  RH WIND       PRES   REMARKS
ST LOUIS INTL  MOSUNNY   78  62  57 W7        30.03F
6HR MIN TEMP:  57; 6HR MAX TEMP:  78;

SPIRIT OF STL  SUNNY     77  61  57 CALM      30.02F
6HR MIN TEMP:  51; 6HR MAX TEMP:  77;

ST CHARLES     SUNNY     76  58  53 VRB5      30.02F
6HR MIN TEMP:  50; 6HR MAX TEMP:  76;


$$
MOZ072>076-082>087-097>100-106>115-251900-
...SOUTH CENTRAL AND SOUTHEAST MISSOURI...

CITY           SKY/WX    TMP DP  RH WIND       PRES   REMARKS
CAPE GIRARDEAU SUNNY     76  62  62 VRB3      30.02F
6HR MIN TEMP:  51; 6HR MAX TEMP:  77;

FARMINGTON     SUNNY     75  63  64 CALM      30.06F
6HR MIN TEMP:  55; 6HR MAX TEMP:  75;

POPLAR BLUFF   SUNNY     77  61  57 CALM      30.02F
6HR MIN TEMP:  55; 6HR MAX TEMP:  78;

WEST PLAINS    SUNNY     76  62  62 VRB5      30.07F
6HR MIN TEMP:  58; 6HR MAX TEMP:  77;


$$



USA.gov is the U.S. government's official web portal to all federal, state and local government web resources and services.